Regional Weather Roundup
Issued by NWS

Home | Current Version | Previous Version | Graphics & Text | Print | Product List | Glossary On
Versions: 1 2 3 4 5 6 7 8 9 10 11 12 13 14 15 16 17 18 19 20 21 22 23 24 25 26 27 28 29 30 31 32 33 34 35 36 37 38 39 40 41 42 43 44 45 46 47 48 49 50
000
ASUS44 KMEG 292000
RWRTN
TENNESSEE HOURLY STATE WEATHER ROUNDUP
NATIONAL WEATHER SERVICE MEMPHIS TN
300 PM CDT FRI MAY 29 2015

TNZ002-004-019-021-049-052-054-088>092-292100-
WEST TENNESSEE

CITY           SKY/WX    TMP DP  RH WIND       PRES   REMARKS
MEMPHIS INTL   PTSUNNY   84  70  62 S8        30.04F
NWS MEMPHIS      N/A     82 N/A N/A MISG        N/A
JACKSON        SUNNY     84  69  60 S8        30.06F
DYERSBURG      PTSUNNY   82  61  47 SE6       30.04F
PARIS          MOSUNNY   81  68  65 S7        30.07F
LEXINGTON      SUNNY     81  70  69 S5        30.08F
$$

TNZ008-025-027-028-033-062-065-066-292100-
NORTH MIDDLE TENNESSEE

CITY           SKY/WX    TMP DP  RH WIND       PRES   REMARKS
NASHVILLE      PTSUNNY   84  69  60 S12       30.11F
CLARKSVILLE    PTSUNNY   81  68  64 S8        30.08F
COOKEVILLE     CLOUDY    72  68  88 SW10      30.17R
CROSSVILLE     MOSUNNY   79  63  57 S9        30.20F
$$

TNZ061-075-076-078-094-096-097-292100-
SOUTH MIDDLE TENNESSEE

CITY           SKY/WX    TMP DP  RH WIND       PRES   REMARKS
FAYETTEVILLE   MOSUNNY  N/A N/A N/A MISG      30.14F
TULLAHOMA      MOSUNNY   79  66  65 S9        30.16F
WINCHESTER     SUNNY     75  68  78 SE6       30.16F
MCMINNVILLE    SUNNY     75  70  83 VRB7      30.17F
COLUMBIA       MOSUNNY   84  70  61 S10       30.09F
SHELBYVILLE    PTSUNNY   81  70  69 S10       30.14F
$$

TNZ017-018-042-046-047-292100-
NORTHEAST TENNESSEE

CITY           SKY/WX    TMP DP  RH WIND       PRES   REMARKS
TRI CITIES     PTSUNNY   82  62  50 VRB5      30.19F
ELIZABETHTON   LGT RAIN  72  64  78 W5        30.22R
$$

TNZ012-013-036-069-073-074-292100-
CENTRAL EAST TENNESSEE

CITY           SKY/WX    TMP DP  RH WIND       PRES   REMARKS
KNOXVILLE      TSTM      71  63  75 W12G48    30.17R
OAK RIDGE      MOSUNNY   85  64  49 VRB5      30.16F
GATLINBURG     PTCLDY    72  64  78 VRB3      30.17F
$$

TNZ083-085-099-292100-
SOUTHEAST TENNESSEE

CITY           SKY/WX    TMP DP  RH WIND       PRES   REMARKS
CHATTANOOGA    LGT RAIN  74  67  78 SW14G25   30.18R
$$

SKY/WX REPORTED AS FAIR MEANS FEW OR NO CLOUDS BELOW
12 THOUSAND FEET.



USA.gov is the U.S. government's official web portal to all federal, state and local government web resources and services.